Home   Weather   Limoges   Past weeks

Flag for France Past Weather in Limoges, Limousin, France — Yesterday and Last 2 Weeks

55 °F

Passing clouds.

Feels Like: 54 °F
Forecast: 40 / 67 °F
Wind: 6 mph from East

Location: Limoges Airport

Current Time: Oct 28, 2016 at 12:37:17 PM

Latest Report: Oct 28, 2016 at 12:00 PM

Visibility: N/A

Pressure: 30.48 "Hg

Humidity: 59%

Dew Point: 41 °F

Location of LimogesLocation

Past Weather in Limoges — Graph


Limoges Temperature Yesterday

Maximum temperature yesterday: 59 °F (at 2:00 PM)
Minimum temperature yesterday: 46 °F (at 6:00 AM)
Average temperature yesterday: 52 °F

High & Low Weather Summary for the Past Weeks

High64 °F (Oct 15, 4:00 PM)100% (Oct 13, 12:00 PM)30.48 "Hg (Oct 13, 12:00 PM)
Low41 °F (Oct 20, 4:30 AM)48% (Oct 22, 4:00 PM)29.56 "Hg (Oct 13, 5:00 PM)
Average52 °F86%30.05 "Hg
* Reported Oct 13 11:00 AM — Oct 28 11:30 AM, Limoges, Weather by CustomWeather, © 2016

Note: Actual official high and low records may vary slightly from our data, if they occured in-between our weather recording intervals... More about our weather records


Limoges Weather History for the Previous 24 Hours

Scroll right to see more
Time TempWeatherWind HumidityBarometerVisibility
11:30 AM
Fri, Oct 28
54 °FPassing clouds.6 mph63%30.48 "HgN/A
11:00 AM52 °FPassing clouds.3 mph67%30.48 "HgN/A
10:30 AM50 °FSunny.5 mph71%30.48 "Hg10 mi
10:00 AM48 °FSunny.5 mph76%30.48 "Hg10 mi
9:30 AM48 °FSunny.5 mph71%30.48 "Hg10 mi
9:00 AM46 °FSunny.5 mph76%30.45 "Hg10 mi
8:30 AM45 °FSunny.3 mph81%30.45 "Hg10 mi
8:00 AM45 °FClear.6 mph87%30.45 "Hg10 mi
7:30 AM46 °FClear.8 mph82%30.45 "Hg10 mi
7:00 AM46 °FClear.14 mph82%30.42 "Hg10 mi
6:30 AM46 °FClear.13 mph87%30.42 "Hg10 mi
6:00 AM46 °FClear.10 mph87%30.45 "Hg10 mi
5:30 AM46 °FClear.10 mph87%30.42 "Hg10 mi
5:00 AM46 °FClear.13 mph87%30.42 "Hg10 mi
4:30 AM48 °FClear.12 mph87%30.42 "Hg10 mi
4:00 AM48 °FClear.13 mph82%30.45 "Hg10 mi
3:30 AM48 °FClear.8 mph82%30.45 "Hg10 mi
3:00 AM48 °FClear.10 mph82%30.45 "Hg10 mi
2:30 AM48 °FClear.9 mph82%30.45 "Hg10 mi
2:00 AM48 °FClear.12 mph82%30.45 "Hg10 mi
1:30 AM48 °FClear.9 mph82%30.45 "Hg10 mi
1:00 AM50 °FClear.14 mph82%30.45 "Hg10 mi
12:30 AM48 °FClear.14 mph87%30.45 "Hg10 mi
12:00 AM50 °FClear.16 mph76%30.45 "Hg10 mi
11:30 PM
Thu, Oct 27
50 °FClear.17 mph82%30.45 "Hg10 mi
11:00 PM50 °FClear.18 mph82%30.45 "Hg10 mi
10:30 PM50 °FClear.18 mph82%30.45 "Hg10 mi
10:00 PM50 °FClear.15 mph82%30.45 "Hg10 mi
9:30 PM50 °FClear.15 mph82%30.45 "Hg10 mi
9:00 PM50 °FClear.14 mph82%30.45 "Hg10 mi
8:30 PM50 °FClear.12 mph82%30.48 "Hg10 mi
8:00 PM50 °FClear.9 mph82%30.45 "Hg10 mi
7:30 PM52 °FClear.10 mph77%30.45 "Hg10 mi
7:00 PM54 °FClear.13 mph72%30.45 "Hg10 mi
6:30 PM54 °FSunny.12 mph77%30.45 "Hg10 mi
6:00 PM55 °FSunny.13 mph72%30.45 "Hg10 mi
5:30 PM57 °FPassing clouds.14 mph63%30.45 "HgN/A
5:00 PM59 °FSunny.14 mph59%30.45 "Hg10 mi
4:30 PM59 °FSunny.13 mph59%30.45 "Hg10 mi
4:00 PM59 °FSunny.14 mph59%30.45 "Hg10 mi
3:30 PM59 °FSunny.14 mph59%30.45 "Hg10 mi
3:00 PM59 °FPassing clouds.13 mph59%30.45 "HgN/A
2:30 PM59 °FPassing clouds.13 mph59%30.45 "HgN/A
2:00 PM59 °FSunny.15 mph59%30.48 "Hg10 mi
1:30 PM57 °FSunny.14 mph63%30.48 "Hg10 mi
1:00 PM57 °FSunny.13 mph63%30.48 "Hg10 mi
12:30 PM55 °FPassing clouds.13 mph67%30.48 "HgN/A
12:00 PM55 °FSunny.13 mph67%30.48 "Hg10 mi
Weather by CustomWeather, © 2016

See weather overviewHow to use our weather pages